Weather History for KRKR - April, 2014

Change the Weather History Date:

Tuesday, April 29, 2014

  Actual Average (KFSM) Record (KFSM)
Temperature  
Mean Temperature 58 °F 65 °F  
Max Temperature 67 °F 77 °F 93 °F (1962)
Min Temperature 49 °F 54 °F 34 °F (1965)
Degree Days  
Heating Degree Days 7 2  
Month to date heating degree days 153  
Since 1 July heating degree days 3212  
Cooling Degree Days 0 3  
Month to date cooling degree days 52  
Year to date cooling degree days 64  
Growing Degree Days 8 (Base 50)    
Moisture  
Dew Point 39 °F    
Average Humidity 52    
Maximum Humidity 83    
Minimum Humidity 30    
Precipitation  
Precipitation 0.00 in 0.16 in 2.26 in (1893)
Month to date precipitation 4.13  
Year to date precipitation 13.55  
Sea Level Pressure  
Sea Level Pressure 29.75 in    
Wind  
Wind Speed 7 mph (WSW)    
Max Wind Speed 18 mph    
Max Gust Speed 34 mph    
Visibility 10 miles    
Events      
T = Trace of Precipitation, MM = Missing Value Source: NWS Daily Summary

Daily Weather History Graph

Daily Weather History Graph

Search for Another Location

Airport or City:

Trip Planner

Search our weather history database for the weather conditions in past years. The results will help you decide how hot, cold, wet, or windy it might be!

Date:

Astronomy

Apr. 29, 2014 Rise Set
Actual Time 6:29 AM CDT 8:02 PM CDT
Civil Twilight 6:02 AM CDT 8:29 PM CDT
Nautical Twilight 5:30 AM CDT 9:01 PM CDT
Astronomical Twilight 4:56 AM CDT 9:35 PM CDT
Moon 6:48 AM CDT (4/29) 8:42 PM CDT (4/29)
Length of Visible Light 14h 26m
Length of Day
13h 32m
New Moon, 0% of the Moon is Illuminated
Apr 29
New Moon
May 6
First Quarter
May 14
Full
May 21
Last Quarter
May 28
New

Hourly Weather History & Observations

Time (CDT) Temp. Dew Point Humidity Pressure Visibility Wind Dir Wind Speed Gust Speed Precip Events Conditions
12:15 AM 52.7 °F 44.6 °F 74% 29.65 in 10.0 mi SSW 3.5 mph - N/A   Clear
12:35 AM 52.2 °F 44.8 °F 76% 29.66 in 10.0 mi SSW 5.8 mph - N/A   Clear
12:55 AM 52.0 °F 45.0 °F 77% 29.66 in 10.0 mi SSW 8.1 mph - N/A   Clear
1:15 AM 54.0 °F 43.3 °F 67% 29.67 in 10.0 mi North - - N/A   Clear
1:35 AM 53.1 °F 42.8 °F 68% 29.68 in 10.0 mi SSW 6.9 mph - N/A   Clear
1:55 AM 53.8 °F 43.0 °F 67% 29.67 in 10.0 mi Calm Calm - N/A   Clear
2:15 AM 53.8 °F 42.6 °F 66% 29.67 in 10.0 mi Calm Calm - N/A   Clear
2:35 AM 50.5 °F 43.5 °F 77% 29.67 in 10.0 mi Calm Calm - N/A   Clear
2:55 AM 49.8 °F 43.7 °F 79% 29.67 in 10.0 mi Calm Calm - N/A   Clear
3:15 AM 51.8 °F 43.2 °F 72% 29.67 in 10.0 mi South 3.5 mph - N/A   Mostly Cloudy
3:35 AM 49.5 °F 43.7 °F 81% 29.67 in 10.0 mi SSW 6.9 mph - N/A   Scattered Clouds
3:55 AM 49.1 °F 43.7 °F 82% 29.68 in 10.0 mi South 9.2 mph - N/A   Scattered Clouds
4:15 AM 49.3 °F 44.2 °F 83% 29.68 in 10.0 mi South 9.2 mph - N/A   Mostly Cloudy
4:35 AM 50.0 °F 45.1 °F 83% 29.68 in 10.0 mi South 9.2 mph - N/A   Mostly Cloudy
4:55 AM 50.2 °F 45.0 °F 82% 29.68 in 10.0 mi South 8.1 mph - N/A   Scattered Clouds
5:15 AM 53.1 °F 41.5 °F 65% 29.68 in 10.0 mi WSW 4.6 mph - N/A   Mostly Cloudy
5:35 AM 51.8 °F 43.2 °F 72% 29.69 in 10.0 mi South 5.8 mph - N/A   Overcast
5:55 AM 53.1 °F 42.1 °F 66% 29.70 in 10.0 mi SSE 5.8 mph - N/A   Overcast
6:15 AM 52.3 °F 43.3 °F 71% 29.71 in 10.0 mi South 8.1 mph - N/A   Overcast
6:35 AM 52.5 °F 44.6 °F 74% 29.71 in 10.0 mi SSW 4.6 mph - N/A   Overcast
6:55 AM 54.5 °F 38.8 °F 56% 29.71 in 10.0 mi SW 5.8 mph - N/A   Scattered Clouds
7:15 AM 54.0 °F 39.7 °F 59% 29.73 in 10.0 mi South 8.1 mph - N/A   Mostly Cloudy
7:35 AM 53.8 °F 41.0 °F 62% 29.74 in 10.0 mi SSW 4.6 mph - N/A   Overcast
7:55 AM 54.7 °F 39.9 °F 58% 29.74 in 10.0 mi South 5.8 mph - N/A   Mostly Cloudy
8:15 AM 55.4 °F 39.9 °F 56% 29.74 in 10.0 mi SSW 6.9 mph - N/A   Mostly Cloudy
8:35 AM 55.6 °F 40.1 °F 56% 29.75 in 10.0 mi SSW 5.8 mph - N/A   Mostly Cloudy
8:55 AM 56.8 °F 39.0 °F 51% 29.74 in 10.0 mi SSW 5.8 mph - N/A   Mostly Cloudy
9:15 AM 58.5 °F 39.4 °F 49% 29.74 in 10.0 mi North - - N/A   Mostly Cloudy
9:35 AM 59.4 °F 38.1 °F 45% 29.73 in 10.0 mi North - - N/A   Scattered Clouds
9:55 AM 61.0 °F 39.4 °F 45% 29.72 in 10.0 mi SSW 8.1 mph - N/A   Clear
10:15 AM 62.8 °F 35.4 °F 36% 29.72 in 10.0 mi West 18.4 mph 25.3 mph N/A   Clear
10:35 AM 63.3 °F 33.8 °F 33% 29.73 in 10.0 mi North - - N/A   Clear
10:55 AM 64.4 °F 35.6 °F 34% 29.72 in 10.0 mi West 12.7 mph - N/A   Clear
11:15 AM 64.4 °F 34.2 °F 32% 29.73 in 10.0 mi West 13.8 mph - N/A   Clear
11:35 AM 65.5 °F 35.1 °F 32% 29.72 in 10.0 mi West 11.5 mph 21.9 mph N/A   Clear
11:55 AM 65.7 °F 35.1 °F 32% 29.73 in 10.0 mi West 17.3 mph 23.0 mph N/A   Scattered Clouds
12:15 PM 65.7 °F 33.4 °F 30% 29.74 in 10.0 mi North - - N/A   Scattered Clouds
12:35 PM 65.8 °F 35.2 °F 32% 29.74 in 10.0 mi West 15.0 mph - N/A   Scattered Clouds
12:55 PM 65.5 °F 33.6 °F 31% 29.74 in 10.0 mi West 18.4 mph 34.5 mph N/A   Scattered Clouds
1:15 PM 65.5 °F 34.3 °F 31% 29.75 in 10.0 mi West 16.1 mph 27.6 mph N/A   Scattered Clouds
1:35 PM 66.4 °F 34.0 °F 30% 29.75 in 10.0 mi North - - N/A   Scattered Clouds
1:55 PM 65.8 °F 35.8 °F 33% 29.75 in 10.0 mi West 12.7 mph - N/A   Scattered Clouds
2:15 PM 65.3 °F 36.0 °F 34% 29.75 in 10.0 mi West 17.3 mph 26.5 mph N/A   Mostly Cloudy
2:35 PM 66.4 °F 36.9 °F 34% 29.75 in 10.0 mi WNW 13.8 mph 29.9 mph N/A   Mostly Cloudy
2:55 PM 67.1 °F 36.7 °F 33% 29.75 in 10.0 mi North - - N/A   Overcast
3:15 PM 65.1 °F 35.4 °F 33% 29.75 in 10.0 mi West 15.0 mph 26.5 mph N/A   Overcast
3:35 PM 66.0 °F 37.0 °F 34% 29.75 in 10.0 mi West 11.5 mph - N/A   Overcast
3:55 PM 64.4 °F 35.2 °F 34% 29.76 in 10.0 mi North - - N/A   Overcast
4:15 PM 65.1 °F 35.4 °F 33% 29.77 in 10.0 mi West 17.3 mph 23.0 mph N/A   Overcast
4:35 PM 63.3 °F 35.6 °F 36% 29.77 in 10.0 mi WNW 10.4 mph 20.7 mph N/A   Overcast
4:55 PM 63.9 °F 36.5 °F 36% 29.78 in 10.0 mi NW 11.5 mph 24.2 mph N/A   Overcast
5:35 PM 62.1 °F 36.9 °F 39% 29.80 in 10.0 mi WNW 10.4 mph 26.5 mph N/A   Mostly Cloudy
5:55 PM 62.2 °F 37.0 °F 39% 29.80 in 10.0 mi NW 9.2 mph 23.0 mph N/A   Mostly Cloudy
6:15 PM 61.9 °F 37.2 °F 40% 29.80 in 10.0 mi NW 13.8 mph 19.6 mph N/A   Scattered Clouds
6:35 PM 60.8 °F 36.9 °F 41% 29.81 in 10.0 mi WNW 12.7 mph 21.9 mph N/A   Clear
6:55 PM 59.9 °F 37.2 °F 43% 29.81 in 10.0 mi WNW 11.5 mph 24.2 mph N/A   Clear
7:15 PM 58.5 °F 38.1 °F 47% 29.83 in 10.0 mi WNW 11.5 mph 24.2 mph N/A   Clear
7:35 PM 57.2 °F 37.2 °F 47% 29.84 in 10.0 mi WNW 13.8 mph 23.0 mph N/A   Clear
7:55 PM 55.8 °F 36.5 °F 48% 29.85 in 10.0 mi WNW 9.2 mph 19.6 mph N/A   Clear
8:15 PM 54.7 °F 37.2 °F 52% 29.86 in 10.0 mi WNW 4.6 mph - N/A   Clear
8:35 PM 54.1 °F 37.6 °F 54% 29.86 in 10.0 mi NW 5.8 mph - N/A   Clear
9:35 PM 54.7 °F 37.6 °F 53% 29.90 in 10.0 mi WNW 5.8 mph - N/A   Overcast
9:55 PM 54.5 °F 37.8 °F 53% 29.90 in 10.0 mi WNW 4.6 mph - N/A   Overcast
10:15 PM 54.3 °F 38.1 °F 54% 29.91 in 10.0 mi West 3.5 mph - N/A   Overcast
10:35 PM 53.6 °F 37.6 °F 55% 29.91 in 10.0 mi WNW 4.6 mph - N/A   Overcast
10:55 PM 53.2 °F 38.1 °F 57% 29.91 in 10.0 mi WNW 3.5 mph - N/A   Overcast
11:15 PM 52.9 °F 37.9 °F 57% 29.91 in 10.0 mi WNW 4.6 mph - N/A   Overcast
11:35 PM 52.5 °F 37.8 °F 57% 29.91 in 10.0 mi WNW 4.6 mph - N/A   Overcast
11:55 PM 52.7 °F 36.3 °F 54% 29.91 in 10.0 mi WNW 6.9 mph - N/A   Scattered Clouds